Flag for Switzerland Weather past 2 weeks in Altdorf, Uri, Switzerland

Now
74 °F

Mild.


Feels Like: 77 °F
Forecast: 62 / 81 °F
Wind: 5 mph from South

Location: Altdorf

Current Time: Aug 31, 2015 at 10:10:17 PM

Latest Report: Aug 31, 2015 at 9:00 PM


Visibility: N/A

Pressure: 29.91 "Hg

Humidity: 55%

Dew point: 57 °F

Location of AltdorfLocation

Historic Weather in Altdorf — Graph

°F

Altdorf temperature yesterday

Maximum temperature yesterday: 86 °F (at 5:00 PM)
Minimum temperature yesterday: 56 °F (at 7:00 AM)
Average temperature yesterday: 72 °F

Past Weeks' High & Low Weather Summary

 TemperatureHumidityPressure
High86 °F (Aug 30, 5:00 PM)99% (Aug 19, 2:00 AM)30.28 "Hg (Aug 19, 2:00 AM)
Low50 °F (Aug 26, 7:00 AM)22% (Aug 31, 4:00 AM)29.67 "Hg (Aug 24, 8:00 AM)
Average66 °F72%30.02 "Hg
* Reported Aug 16 8:00 PM — Aug 31 8:00 PM, Altdorf, Weather by CustomWeather, © 2015

Note: Actual official high and low records may vary slightly from our data, if they occured in-between our weather recording intervals... More about our weather records

Advertising

Altdorf weather history for previous 24 hours

 ConditionsComfort  
Time TempWeatherWind HumidityBarometerVisibility
8:00 PM
Mon, Aug 31
76 °FPassing clouds.3 mph50%29.90 "Hg16 mi
7:00 PM81 °FWarm.3 mph40%29.88 "HgN/A
6:00 PM79 °FWarm.2 mph46%29.88 "HgN/A
5:00 PM85 °FScattered clouds.5 mph36%29.87 "Hg17 mi
4:00 PM85 °FPleasantly warm.5 mph35%29.88 "HgN/A
3:00 PM84 °FPleasantly warm.8 mph37%29.90 "HgN/A
2:00 PM83 °FSunny.8 mph38%29.92 "Hg19 mi
1:00 PM80 °FPleasantly warm.7 mph34%29.95 "HgN/A
12:00 PM76 °FMild.5 mph41%29.97 "HgN/A
11:00 AM76 °FSunny.5 mph35%30.00 "Hg19 mi
10:00 AM71 °FMild.7 mph49%30.02 "HgN/A
9:00 AM69 °FMild.1 mph46%30.03 "HgN/A
8:00 AM63 °FPassing clouds.1 mph49%30.06 "Hg19 mi
7:00 AM61 °FCool.3 mph61%30.06 "HgN/A
6:00 AM73 °FMild.2 mph28%30.02 "HgN/A
5:00 AM74 °FClear.5 mph25%30.02 "Hg19 mi
4:00 AM76 °FMild.15 mph22%29.99 "HgN/A
3:00 AM73 °FMild.7 mph26%30.00 "HgN/A
2:00 AM73 °FClear.9 mph28%30.01 "Hg19 mi
1:00 AM71 °FMild.3 mph33%30.05 "HgN/A
12:00 AM71 °FMild.2 mph40%30.06 "HgN/A
10:00 PM
Sun, Aug 30
68 °FMild.1 mph61%30.06 "HgN/A
Weather by CustomWeather, © 2015

See weather overviewHow to use our weather pages